Theta_e
348 347 345 346 345 345 344 342 341 341 341 341 341 341 338 336 338 338 339 340 340 341 343 339 339 340 342 342 337 337 333 340 337 337 337 338 340 340 340 339 339 342 333
347 347 347 346 345 344 343 341 340 340 341 341 341 341 337 336 337 336 335 335 337 339 340 338 339 338 339 336 334 336 337 338 341 339 336 337 337 334 332 331 332 341 337
347 346 347 346 345 343 343 342 340 339 339 339 338 336 336 339 340 338 336 338 332 339 340 338 335 338 336 333 339 340 341 341 341 341 341 343 344 339 341 342 339 336 335
346 346 346 341 340 340 340 340 339 335 335 336 336 336 336 337 337 339 337 340 338 339 339 339 341 337 336 340 336 338 339 338 338 338 339 344 345 333 336 337 336 333 332
347 347 343 340 342 335 335 333 334 334 333 335 336 336 335 336 339 339 336 340 337 341 339 340 340 336 338 335 336 334 334 331 329 331 331 331 345 338 338 338 338 337 337
345 345 341 331 330 331 333 336 335 334 334 334 334 334 336 337 342 337 336 340 336 335 338 338 336 335 335 336 337 337 336 336 327 326 326 328 338 335 334 333 332 335 335
346 346 341 332 328 331 336 337 337 335 335 335 336 337 338 338 339 341 330 329 333 334 334 337 338 339 340 337 337 338 339 339 335 339 337 327 327 329 331 334 331 330 330
345 346 342 335 328 331 333 334 333 333 333 333 334 335 338 337 341 343 333 327 339 333 337 337 333 337 338 338 340 339 337 338 338 338 341 340 331 328 337 339 337 338 335
345 343 338 335 329 326 326 327 330 332 332 332 334 335 339 336 339 342 337 329 327 332 336 331 330 333 336 336 338 336 337 336 336 336 336 338 338 338 330 334 334 333 336
340 332 329 328 325 325 326 331 331 333 333 334 337 327 330 332 337 339 339 337 328 326 332 337 328 328 331 336 337 335 335 333 330 333 334 334 334 337 339 328 328 330 331
330 328 326 326 329 341 343 343 339 334 333 336 334 332 334 337 338 338 336 336 336 338 338 328 326 325 329 331 334 334 333 331 331 331 331 331 333 334 336 338 333 327 329
324 327 331 339 341 339 339 340 343 332 334 342 336 333 336 335 333 334 334 333 333 332 333 332 331 331 333 335 331 331 331 332 330 336 335 336 338 338 337 335 337 332 328
326 328 335 338 339 339 339 339 335 337 338 343 336 334 335 336 336 335 335 336 336 336 338 334 336 340 333 330 330 330 332 333 336 337 338 338 339 339 336 335 336 338 329
338 332 334 337 338 337 337 338 336 334 335 334 334 333 335 335 336 337 337 335 335 335 335 331 332 331 330 329 330 332 331 334 341 339 340 339 340 338 337 337 337 339 338
342 337 338 338 336 338 341 340 340 336 335 335 334 336 336 336 336 336 339 336 334 334 335 334 333 332 331 332 332 333 335 336 336 338 341 339 340 340 338 339 339 339 340
343 342 340 339 338 340 340 342 341 341 340 341 341 339 337 338 339 340 339 340 337 337 335 335 335 334 333 333 333 334 333 333 335 338 339 340 340 341 341 341 340 340 340
343 345 345 344 343 344 343 344 343 342 341 341 341 341 340 341 342 342 342 340 341 340 340 336 335 335 335 335 336 339 340 337 335 334 338 340 339 340 342 341 341 340 338
343 344 344 345 346 345 345 345 345 345 345 345 344 343 343 341 343 343 343 341 341 340 341 342 341 340 339 340 342 342 342 341 341 338 336 339 339 339 342 341 342 341 341
344 344 344 345 345 346 346 346 346 346 346 345 345 344 344 344 344 344 343 343 343 342 341 341 341 342 343 343 342 343 343 342 342 344 343 337 341 338 341 341 341 341 342
346 346 346 345 345 346 346 346 346 346 346 346 343 337 339 340 343 344 344 344 344 344 344 343 342 342 342 343 343 343 344 345 343 344 344 343 340 340 341 340 341 342 342
348 346 346 347 346 346 346 346 346 346 346 347 344 342 343 342 338 341 343 344 344 345 345 346 346 346 344 344 345 344 343 344 344 344 343 344 342 340 339 340 340 341 344
348 348 347 347 346 346 346 346 346 346 347 347 347 348 347 342 345 343 343 344 346 345 344 346 347 346 346 345 345 344 346 345 342 344 344 341 342 343 343 338 339 341 342
348 348 349 347 347 346 346 346 346 346 347 347 348 349 349 347 349 348 348 348 348 347 336 342 346 347 346 346 346 344 347 345 342 341 341 340 340 341 342 342 340 340 341
346 348 348 348 347 346 346 346 346 346 347 348 351 348 347 350 351 352 352 349 347 348 347 346 347 347 348 347 346 346 344 343 345 345 345 342 343 343 341 341 338 340 341
346 347 348 348 347 347 346 347 346 348 349 351 350 349 348 349 350 350 349 347 347 345 346 346 345 346 346 347 348 346 345 346 345 346 346 345 344 343 342 344 342 339 339
347 347 347 347 347 347 347 346 343 344 346 350 350 351 349 347 348 346 344 345 344 346 346 345 344 345 346 346 346 345 345 345 344 345 344 345 344 344 343 342 342 343 343
Wind_Speed
21 24 25 21 20 21 21 22 22 20 19 18 17 15 14 15 15 14 13 11 10 9 10 11 11 10 11 11 11 11 11 13 12 12 11 11 10 9 9 8 9 9 8
24 23 21 20 20 19 20 20 20 20 18 17 15 13 12 13 12 10 9 9 10 11 12 12 11 11 12 11 13 14 14 14 13 11 11 10 9 8 7 7 7 8 8
25 23 18 18 17 17 18 17 16 16 15 14 14 13 12 11 9 9 10 11 12 12 11 11 11 12 11 13 14 14 14 13 12 11 11 11 9 8 8 8 8 8 8
24 24 19 16 15 17 17 17 16 15 15 14 14 13 10 9 8 8 10 12 12 14 11 13 12 13 13 13 14 15 14 13 13 12 11 11 9 9 8 8 7 8 7
22 20 18 16 17 18 18 16 15 15 14 13 12 11 9 8 9 9 10 11 12 12 12 12 11 12 12 13 14 14 13 12 11 10 8 9 10 9 8 8 7 7 7
20 17 17 17 17 17 16 15 14 13 13 11 10 9 8 7 9 8 10 10 11 12 12 12 11 12 11 11 10 9 10 10 10 10 9 9 8 7 7 6 6 6 7
19 16 16 16 16 15 15 13 12 12 11 10 9 8 7 7 8 7 8 9 9 11 12 10 10 11 10 9 8 8 6 6 8 7 8 8 7 6 6 6 6 5 5
19 17 16 16 17 15 14 12 11 11 10 10 8 7 6 7 8 6 8 11 10 11 10 10 10 10 10 9 7 6 6 6 4 3 3 5 6 4 5 4 5 5 5
17 16 17 17 17 15 13 11 10 10 9 9 8 7 7 6 7 8 6 8 10 10 10 9 10 10 10 9 7 5 3 2 1 1 1 0 3 3 1 3 4 2 4
17 16 16 16 15 14 12 10 10 10 10 9 8 7 5 4 5 7 7 6 7 8 9 8 9 10 11 9 7 6 5 3 2 5 5 3 5 3 3 3 4 4 5
17 17 16 16 14 12 11 10 10 10 10 9 9 7 3 3 3 5 5 5 6 6 6 8 9 9 9 9 9 8 6 5 6 12 10 9 8 8 9 8 7 7 7
19 18 16 14 11 11 11 10 10 11 12 11 11 7 5 5 5 6 6 7 8 8 10 10 10 10 10 10 11 11 11 9 10 11 11 11 10 14 16 14 11 11 10
18 18 16 14 12 10 9 9 10 10 11 11 12 11 7 4 5 6 8 10 11 11 10 12 11 10 11 12 12 13 13 12 11 7 7 10 13 13 15 18 16 14 13
17 16 15 12 11 8 8 9 9 10 9 9 12 13 11 8 7 8 9 9 9 11 13 14 14 14 13 13 13 14 14 15 15 14 13 10 8 10 13 17 17 16 16
15 16 14 14 11 9 9 5 11 10 11 10 12 13 14 12 11 11 11 11 11 13 15 16 16 16 15 15 16 17 17 17 17 16 13 12 9 9 11 15 18 19 19
14 13 13 11 12 13 13 3 3 5 9 10 11 12 14 16 15 14 14 13 13 13 17 19 20 19 19 20 21 22 23 23 21 19 17 15 12 8 11 14 16 16 18
15 13 11 10 11 12 11 7 5 3 4 6 9 11 13 17 18 17 17 17 14 14 13 15 20 23 24 23 24 24 23 25 25 23 19 17 15 13 11 12 15 17 16
14 15 12 12 11 11 12 10 8 8 7 8 10 12 14 17 17 18 20 19 17 16 17 19 18 20 21 22 22 21 21 22 23 24 24 22 18 17 15 13 13 15 18
12 13 14 14 12 11 12 13 13 12 13 14 15 18 16 12 16 20 20 19 18 19 21 20 21 21 22 23 22 20 19 22 22 21 21 24 22 20 19 16 13 14 15
13 13 14 14 14 14 13 13 15 15 16 12 11 15 13 9 16 18 17 21 22 23 23 22 22 21 20 19 18 18 17 18 20 20 21 21 24 23 20 19 16 15 16
14 14 14 15 15 16 14 12 13 13 13 8 6 9 10 10 14 9 15 13 17 19 20 21 19 20 22 20 19 19 18 17 18 17 18 21 23 25 23 23 21 18 16
14 15 15 13 13 15 15 15 16 15 14 13 11 10 11 12 17 12 13 12 12 13 15 18 20 19 18 16 17 14 8 9 12 15 15 16 18 21 24 25 25 22 19
15 15 16 16 14 13 13 14 16 17 19 17 13 10 9 12 13 12 12 12 14 12 11 20 19 17 16 16 15 12 4 5 4 8 12 14 17 20 22 22 25 26 23
12 14 13 14 12 10 9 8 10 13 17 11 11 13 13 11 10 6 6 5 7 9 11 11 10 15 16 17 16 17 18 18 8 7 9 12 10 10 16 25 24 26 26
7 11 10 13 14 11 9 6 11 11 13 7 9 10 10 8 8 9 8 7 7 8 9 9 10 12 13 16 16 17 18 19 20 17 15 13 13 13 12 12 19 25 27
4 2 12 9 11 11 12 6 6 14 13 10 10 10 8 7 8 8 8 9 9 7 6 8 9 9 10 12 15 17 21 19 19 19 20 20 17 15 16 18 19 20 21
Wind_Direction
127 132 139 139 133 133 131 129 131 133 133 133 130 124 120 123 125 125 128 129 125 122 135 134 130 121 124 118 109 107 112 111 111 115 115 112 106 107 110 108 97 101 111
134 135 138 141 135 136 135 129 127 126 128 130 129 127 123 120 118 111 113 126 134 137 132 133 132 126 122 120 115 110 106 106 109 110 109 110 112 111 111 103 105 103 102
139 133 139 150 143 141 141 137 130 129 130 131 134 127 127 119 117 111 121 123 121 131 131 131 131 123 124 120 118 111 108 108 111 112 111 106 107 99 102 102 102 102 108
144 144 152 149 150 145 143 141 140 139 137 138 139 135 131 129 128 132 135 130 126 124 130 121 119 119 121 125 119 116 116 111 105 105 105 101 104 106 105 100 98 101 103
149 153 155 144 141 141 141 142 142 140 140 142 140 138 132 137 138 139 139 138 138 130 128 130 133 132 132 125 119 110 110 107 103 106 100 98 112 107 105 102 103 108 112
149 149 152 151 146 146 145 146 143 143 143 144 147 143 144 151 151 148 149 154 145 144 135 132 136 132 133 129 117 111 107 103 103 104 105 104 109 110 112 118 115 111 113
149 152 158 157 157 155 149 146 144 150 153 160 164 159 163 159 154 167 152 149 148 143 143 143 148 148 145 140 128 119 114 110 117 96 89 93 95 106 116 114 117 123 122
155 153 161 164 168 163 160 160 164 171 170 174 176 169 177 168 167 186 164 162 161 160 158 164 164 165 159 159 151 128 117 103 123 139 105 90 86 93 116 121 124 123 134
160 162 164 167 174 176 177 181 185 191 184 181 179 179 175 178 167 189 184 173 177 179 176 176 177 182 182 184 180 160 140 102 51 37 233 158 87 51 81 142 144 156 160
167 166 166 169 172 175 183 192 198 199 195 192 188 174 180 199 187 189 189 180 172 179 189 195 194 194 199 201 205 206 210 228 327 323 299 278 258 294 261 230 229 202 197
173 171 172 173 179 185 191 199 202 203 201 204 197 185 184 236 216 195 198 202 194 203 205 209 207 201 204 213 226 243 257 257 305 307 285 282 280 267 259 245 239 227 213
176 176 179 181 190 195 204 211 213 209 206 206 205 202 225 239 240 232 229 240 247 231 232 226 218 216 223 227 234 246 253 240 263 286 283 275 281 271 252 244 238 230 219
178 186 190 192 197 206 221 229 224 213 211 211 211 219 232 242 240 259 265 255 247 247 228 231 230 225 234 235 240 245 248 246 243 282 291 272 273 277 240 237 239 227 223
192 195 200 200 202 204 216 234 236 232 232 235 229 233 239 253 268 295 276 274 259 250 240 238 235 236 238 242 246 252 251 251 251 267 277 272 279 267 245 235 226 236 232
193 197 200 204 196 188 207 189 212 215 230 244 250 250 253 264 274 283 291 267 266 255 248 245 243 241 244 250 254 257 258 258 254 260 266 265 271 263 238 229 230 234 242
187 189 195 197 197 203 234 165 133 203 240 250 264 266 269 268 274 278 281 279 270 267 256 251 249 252 253 258 262 264 262 261 260 262 258 257 257 253 240 236 235 236 236
210 208 206 207 224 225 238 245 248 241 260 268 276 282 279 275 278 280 279 278 276 266 264 260 253 251 255 266 270 269 268 263 260 257 255 252 247 244 250 242 242 240 239
218 222 225 228 236 254 258 256 261 270 273 267 269 279 284 273 271 274 275 272 271 270 264 260 256 254 255 256 263 267 267 265 263 255 252 244 242 238 239 250 248 242 242
231 235 243 248 253 260 271 274 271 271 275 288 312 326 322 309 284 272 270 271 269 265 261 259 259 259 255 257 262 265 265 268 266 256 251 244 239 237 237 237 250 255 247
245 250 251 256 262 267 271 276 280 281 287 314 342 4 344 345 320 304 295 272 264 261 263 262 264 264 265 261 264 259 263 263 263 258 248 247 242 238 238 239 245 254 254
249 251 254 259 264 267 272 278 289 300 310 321 304 315 321 327 354 294 271 269 278 271 271 269 265 267 265 264 266 269 269 269 263 257 250 244 240 237 239 241 243 246 247
247 251 256 260 268 270 278 284 292 299 309 323 319 309 313 308 323 280 280 305 291 286 282 278 268 267 271 268 263 258 280 271 266 248 245 241 240 240 240 244 240 240 240
259 259 259 260 262 273 285 297 308 313 319 323 314 319 318 306 311 302 305 308 308 299 332 277 264 261 269 269 264 246 262 263 270 251 253 250 247 246 242 239 240 238 237
251 253 264 277 277 286 302 305 326 327 325 321 316 316 310 321 321 325 306 310 296 295 279 290 276 262 261 262 266 260 252 256 271 275 259 248 244 258 252 240 241 240 242
278 241 263 267 272 258 280 302 317 330 337 297 315 313 310 316 312 316 321 323 325 307 289 287 282 267 264 261 267 267 265 258 255 251 270 255 265 266 251 243 242 242 247
333 307 250 321 287 277 281 315 322 303 339 313 298 285 281 278 280 296 311 320 323 326 313 296 301 294 276 265 265 259 263 261 256 251 262 274 277 268 262 256 245 240 238